Temp
34 34 34 35 34 34 34 35 36 36 36 36 35 34 34 34 34 35 35 35 34 34 34 34 35 35 35 36 36 36 35 34 34 33 33 33 33 33 32 32 31 32 31 31 31 31 31 31 31 31 31 31 30 31 29 29 29 29 29 30 30 30
35 35 34 34 34 34 34 35 35 35 35 35 34 35 35 34 34 34 34 34 34 34 35 35 35 35 35 35 35 34 34 33 33 32 32 32 32 31 31 31 31 30 30 30 30 30 30 29 30 29 29 29 28 28 28 28 28 28 27 27 29 30
35 35 34 34 34 34 34 34 34 34 35 34 35 34 34 34 34 34 33 34 34 34 34 34 35 35 35 34 34 33 33 32 32 31 31 31 30 31 30 30 30 30 30 29 29 28 28 27 27 28 27 27 26 27 27 27 27 26 26 27 26 27
35 35 35 34 34 33 33 34 34 34 34 34 34 34 34 34 34 33 33 34 34 34 34 34 34 34 33 33 33 32 32 31 31 31 31 30 30 30 29 29 29 29 28 28 27 27 27 27 27 26 26 25 25 25 28 27 25 25 25 25 25 25
34 34 34 33 32 32 33 33 33 33 34 34 34 33 33 34 34 34 34 34 34 34 34 33 33 32 32 32 31 31 30 30 31 31 29 29 29 29 28 27 27 27 27 27 27 26 25 26 25 25 25 24 24 24 24 26 25 25 24 24 24 24
34 34 33 33 32 31 32 33 34 34 34 34 33 33 34 34 34 34 33 33 33 33 32 31 31 31 30 30 30 29 29 29 29 29 28 28 27 26 27 26 26 26 26 26 25 25 24 25 25 24 25 25 24 24 24 24 24 24 24 24 23 23
33 33 33 33 33 33 33 33 33 33 33 33 33 33 34 33 34 33 33 32 32 31 31 30 30 29 29 28 28 28 28 27 27 28 27 26 25 25 25 26 25 25 25 25 24 24 24 24 24 24 25 25 24 24 24 23 23 23 23 23 24 26
34 33 33 34 34 33 32 32 33 33 33 33 34 33 33 33 33 32 32 31 31 30 30 30 30 29 29 28 28 27 27 27 27 26 26 26 25 25 25 25 24 25 24 23 23 23 23 23 24 24 24 23 24 23 24 23 23 23 23 23 24 23
33 33 34 33 33 32 32 32 33 33 33 33 33 33 33 32 31 31 31 31 30 30 30 30 30 30 29 29 28 28 28 27 27 27 26 26 26 25 25 24 24 24 23 23 23 23 23 24 24 24 23 23 24 24 24 23 23 23 23 23 23 23
33 33 33 33 32 33 32 33 34 33 33 32 32 32 31 31 30 30 30 30 29 29 29 29 30 29 29 29 28 28 28 27 27 26 25 25 24 24 24 24 24 24 24 24 24 24 24 23 23 23 23 24 25 25 24 23 23 23 22 23 23 23
33 33 33 33 33 32 32 33 33 33 33 32 32 32 31 31 30 30 30 29 29 29 29 29 29 29 28 28 28 27 27 27 26 26 25 24 24 25 24 24 24 24 24 24 24 23 24 24 23 23 23 24 25 25 24 24 23 22 22 22 22 23
34 34 34 33 33 33 33 33 33 33 32 32 32 31 31 31 30 30 30 29 29 29 30 30 29 28 28 27 27 26 26 26 26 25 25 24 24 24 23 23 23 23 23 23 22 22 24 24 23 25 26 26 25 24 24 24 24 22 21 22 22 22
35 34 34 33 33 33 33 33 33 33 33 32 32 31 31 31 30 30 30 29 30 30 29 29 29 29 28 27 27 26 26 26 26 25 24 24 24 24 23 23 23 23 22 23 22 22 24 24 24 26 26 26 26 25 24 23 23 22 22 22 21 21
34 34 34 34 34 34 34 34 34 33 33 33 32 32 32 31 31 30 30 30 30 30 29 29 28 28 27 27 27 27 26 26 26 25 24 24 23 23 23 23 23 23 23 23 22 21 23 23 26 26 26 26 26 25 24 24 23 23 21 22 21 21
36 35 35 35 35 35 35 35 34 33 33 33 33 33 32 31 31 30 30 30 30 30 29 29 28 27 27 27 27 27 26 26 25 25 24 24 24 23 23 23 23 22 23 22 22 22 22 22 26 26 25 25 25 25 25 24 23 22 21 21 21 21
37 36 36 36 36 36 36 36 35 35 35 34 34 32 32 31 31 31 30 30 30 30 29 29 28 27 27 27 27 27 26 26 25 25 25 24 23 23 23 22 22 22 22 22 22 21 22 21 25 26 25 25 25 25 25 23 21 21 21 21 21 21
37 36 36 36 36 37 37 36 36 35 35 34 33 33 32 31 31 31 31 31 31 30 30 29 28 27 27 27 27 26 26 26 25 25 25 24 24 23 23 22 22 22 22 22 22 21 21 22 26 26 25 25 25 25 24 22 22 21 21 21 21 21
38 37 37 38 37 37 37 36 36 35 35 35 34 33 32 32 31 31 31 31 30 30 30 29 28 28 28 27 27 26 26 25 25 25 24 23 23 23 22 22 22 22 22 21 21 20 20 22 26 25 25 24 24 24 22 21 20 20 20 20 21 21
39 39 38 38 38 38 37 37 37 36 35 33 33 33 33 32 31 31 31 31 31 31 30 30 29 28 28 27 26 26 25 25 25 25 24 23 23 22 22 22 22 22 21 21 20 19 20 21 25 25 24 24 24 22 19 19 19 19 19 19 20 21
40 39 39 38 38 38 38 38 37 36 34 33 33 33 32 32 32 32 32 32 32 31 31 30 29 28 28 27 26 26 26 26 26 25 24 23 22 22 22 22 21 21 21 20 20 20 19 19 23 25 24 23 23 21 17 17 17 17 17 18 20 20
40 39 39 39 38 38 39 38 37 36 34 34 33 33 32 32 32 32 32 32 33 32 32 31 30 29 28 27 27 27 26 26 25 24 24 24 23 23 22 20 20 20 20 20 20 21 20 18 21 25 23 23 23 21 19 17 15 15 16 16 16 19
38 38 38 38 38 39 38 38 37 35 35 34 34 33 32 33 33 34 34 34 34 33 32 32 30 30 29 28 27 27 27 26 24 24 23 23 22 21 20 19 19 19 18 19 18 18 18 17 17 20 24 23 22 22 18 16 16 13 15 16 18 15
38 38 38 39 39 39 38 38 36 35 35 34 34 33 34 35 35 34 34 34 34 33 32 32 31 30 29 29 28 27 26 26 25 23 22 21 20 19 18 18 18 17 17 17 17 16 17 18 17 19 23 22 22 22 20 17 17 17 16 15 16 17
37 37 38 38 38 38 38 37 36 35 35 34 34 35 36 35 35 35 34 34 33 33 32 31 31 30 30 28 27 25 25 25 24 23 21 20 19 17 16 15 15 15 15 14 15 15 15 18 19 17 21 22 22 22 22 17 17 18 17 16 17 17
36 37 37 38 38 38 38 37 35 35 35 34 35 36 36 36 35 35 34 34 33 32 32 31 30 29 29 27 26 24 24 23 21 20 19 19 17 16 14 14 14 13 13 12 12 14 16 17 17 19 17 20 22 22 22 21 19 21 20 17 15 16
36 37 37 37 38 38 38 37 35 35 35 35 38 36 36 35 35 34 33 32 32 32 31 29 28 28 28 26 25 24 22 21 20 19 19 18 17 15 13 12 12 12 12 12 13 14 16 17 16 18 18 17 20 21 21 21 21 21 19 18 17 18
35 35 35 36 37 38 37 37 36 34 34 37 37 36 35 35 34 32 31 31 31 29 29 28 28 27 27 26 25 23 22 20 18 18 17 16 15 15 13 13 12 12 12 13 13 14 15 16 16 15 17 18 18 20 21 21 21 21 22 17 15 17
34 34 34 35 36 37 37 37 36 34 36 37 36 36 35 33 31 30 30 29 29 29 28 26 27 27 26 25 25 24 23 20 19 18 17 16 15 14 13 12 12 12 12 13 14 14 15 14 15 14 15 17 17 18 20 20 20 20 20 19 17 19
34 33 33 34 35 36 36 35 36 37 37 36 36 35 34 31 30 30 29 29 29 28 27 27 27 27 26 25 25 24 23 21 20 18 17 16 15 14 13 12 12 12 12 12 13 14 13 12 12 12 13 13 13 12 14 15 16 19 19 16 13 11
34 34 33 34 35 35 35 35 35 36 35 35 34 33 32 31 30 30 29 29 29 29 27 27 25 25 26 25 24 23 22 21 20 19 17 16 16 14 13 13 13 13 13 13 13 12 11 11 11 11 11 12 11 10 11 12 12 10 8 7 6 6
33 33 33 34 35 35 34 34 34 34 34 34 33 32 31 31 30 30 29 29 29 29 28 27 26 26 26 24 23 24 23 21 20 19 18 19 19 19 16 15 15 15 16 15 14 12 11 10 10 11 15 13 16 13 12 12 13 13 11 13 12 8
32 32 32 34 33 33 33 33 33 33 33 33 32 32 31 31 30 29 29 29 29 29 28 28 27 26 25 24 23 22 21 21 23 23 20 18 20 22 24 23 18 17 16 15 15 15 13 11 12 18 20 20 20 20 19 18 18 18 15 16 15 8
31 31 31 32 32 32 32 32 32 32 32 32 32 31 31 30 30 29 30 30 30 30 29 28 26 25 25 24 23 22 20 18 20 25 26 23 20 21 24 25 24 23 21 17 14 17 20 19 20 21 21 21 21 21 20 20 19 19 19 17 8 2
30 31 31 32 32 32 31 31 31 32 32 32 32 32 31 31 31 30 30 31 31 29 28 28 26 24 24 23 22 21 19 17 16 18 23 22 21 23 25 25 25 24 23 22 18 16 16 20 22 22 22 22 21 20 19 19 19 18 19 16 12 -4
31 32 32 31 30 30 31 31 32 32 31 31 32 32 31 31 31 31 30 30 29 29 27 27 26 24 24 22 21 20 19 17 17 15 15 17 21 24 25 25 24 24 23 23 21 21 19 20 21 22 22 21 20 19 18 18 18 17 16 14 1 -8
31 30 30 30 30 30 30 30 32 32 31 31 31 31 31 31 30 31 31 30 29 28 27 27 26 25 24 23 22 21 19 19 18 17 15 12 13 17 21 23 24 23 23 23 22 21 21 21 21 22 21 20 19 18 18 16 14 14 13 7 -7 -9
30 29 30 29 30 29 29 30 32 32 31 30 30 30 30 30 30 30 27 25 26 28 28 27 27 26 24 23 21 21 20 19 18 17 14 12 12 12 13 14 17 20 21 19 20 21 21 21 21 21 19 19 18 17 17 15 8 5 1 -4 -12 -9
29 29 30 29 29 29 29 30 31 31 29 29 29 29 29 29 29 28 29 28 26 27 28 27 26 26 25 23 22 22 20 19 18 16 14 14 13 13 12 12 14 16 18 19 19 20 22 21 20 19 19 18 17 17 17 3 -1 -3 -6 -9 -11 -11
MSLP
1023.72 1024.32 1024.88 1025.48 1026.00 1026.48 1026.88 1027.20 1027.52 1027.80 1028.04 1028.24 1028.40 1028.60 1029.12 1029.36 1029.24 1029.12 1029.28 1029.56 1029.84 1030.08 1030.28 1030.52 1030.80 1031.04 1031.28 1031.52 1031.72 1032.04 1032.32 1032.68 1033.00 1033.24 1033.36 1033.40 1033.36 1033.32 1033.36 1033.52 1033.76 1034.00 1034.20 1034.28 1034.36 1034.36 1034.36 1034.36 1034.40 1034.40 1034.44 1034.48 1034.56 1034.60 1034.72 1034.68 1034.64 1034.64 1034.56 1034.56 1034.64 1034.68
1023.44 1024.04 1024.56 1025.08 1025.60 1026.08 1026.64 1027.00 1027.36 1027.64 1027.88 1028.16 1028.36 1028.48 1028.80 1029.20 1029.32 1029.24 1029.36 1029.68 1030.00 1030.28 1030.48 1030.72 1030.92 1031.08 1031.32 1031.60 1031.84 1032.16 1032.48 1032.76 1033.00 1033.16 1033.24 1033.32 1033.32 1033.40 1033.60 1033.84 1034.04 1034.24 1034.36 1034.44 1034.44 1034.44 1034.48 1034.52 1034.52 1034.52 1034.52 1034.60 1034.68 1034.76 1034.84 1034.80 1034.76 1034.76 1034.80 1034.84 1034.84 1034.88
1023.24 1023.92 1024.52 1025.12 1025.52 1025.84 1026.32 1026.76 1027.00 1027.28 1027.64 1027.96 1028.12 1028.36 1028.68 1029.04 1029.20 1029.28 1029.40 1029.64 1030.00 1030.28 1030.52 1030.76 1030.92 1031.16 1031.44 1031.76 1032.04 1032.36 1032.64 1032.84 1033.00 1033.16 1033.20 1033.28 1033.44 1033.56 1033.80 1034.00 1034.16 1034.32 1034.40 1034.48 1034.52 1034.56 1034.56 1034.60 1034.64 1034.64 1034.72 1034.76 1034.84 1034.84 1034.84 1034.88 1034.92 1035.00 1035.08 1035.08 1035.08 1035.04
1023.04 1023.72 1024.36 1024.92 1025.32 1025.76 1026.12 1026.44 1026.80 1027.12 1027.40 1027.56 1027.80 1028.12 1028.40 1028.60 1028.88 1029.08 1029.28 1029.60 1029.88 1030.16 1030.44 1030.72 1030.96 1031.20 1031.48 1031.84 1032.16 1032.48 1032.72 1032.92 1033.04 1033.12 1033.28 1033.40 1033.52 1033.68 1033.92 1034.08 1034.24 1034.32 1034.44 1034.48 1034.56 1034.60 1034.60 1034.68 1034.72 1034.76 1034.80 1034.88 1034.92 1034.96 1034.92 1035.12 1035.16 1035.24 1035.24 1035.20 1035.24 1035.24
1022.68 1023.36 1024.00 1024.56 1025.08 1025.52 1025.88 1026.24 1026.52 1026.80 1027.08 1027.28 1027.52 1027.84 1028.16 1028.32 1028.56 1028.80 1029.08 1029.44 1029.80 1030.08 1030.36 1030.64 1030.96 1031.20 1031.52 1031.84 1032.20 1032.52 1032.76 1032.92 1033.00 1033.08 1033.24 1033.40 1033.56 1033.76 1033.96 1034.12 1034.24 1034.36 1034.44 1034.52 1034.60 1034.64 1034.68 1034.72 1034.80 1034.80 1034.92 1035.00 1035.08 1035.16 1035.24 1035.24 1035.32 1035.32 1035.36 1035.36 1035.40 1035.40
1022.60 1023.32 1023.88 1024.48 1025.04 1025.40 1025.64 1025.84 1026.12 1026.52 1026.72 1026.92 1027.24 1027.60 1027.84 1028.20 1028.44 1028.68 1029.00 1029.36 1029.80 1030.08 1030.40 1030.68 1030.92 1031.20 1031.48 1031.84 1032.20 1032.48 1032.72 1032.84 1032.96 1033.00 1033.16 1033.32 1033.56 1033.76 1033.96 1034.12 1034.28 1034.36 1034.44 1034.52 1034.60 1034.64 1034.72 1034.80 1034.84 1034.96 1035.04 1035.12 1035.24 1035.36 1035.40 1035.40 1035.40 1035.36 1035.44 1035.52 1035.52 1035.56
1022.24 1022.84 1023.44 1024.00 1024.48 1024.80 1025.04 1025.36 1025.64 1025.96 1026.32 1026.60 1026.84 1027.28 1027.64 1027.96 1028.20 1028.52 1028.88 1029.28 1029.76 1030.16 1030.40 1030.60 1030.84 1031.12 1031.40 1031.76 1032.12 1032.44 1032.64 1032.80 1032.88 1033.00 1033.08 1033.24 1033.44 1033.68 1033.88 1034.08 1034.20 1034.32 1034.48 1034.60 1034.64 1034.68 1034.76 1034.84 1034.96 1035.08 1035.20 1035.28 1035.36 1035.44 1035.44 1035.44 1035.40 1035.44 1035.52 1035.60 1035.68 1035.68
1021.84 1022.44 1022.92 1023.40 1023.76 1024.08 1024.36 1024.76 1025.12 1025.56 1025.96 1026.28 1026.48 1026.84 1027.40 1027.80 1028.04 1028.36 1028.76 1029.20 1029.64 1029.96 1030.20 1030.40 1030.64 1030.92 1031.24 1031.64 1032.04 1032.32 1032.56 1032.72 1032.84 1032.92 1033.00 1033.08 1033.28 1033.52 1033.76 1034.00 1034.20 1034.36 1034.56 1034.68 1034.72 1034.72 1034.80 1034.92 1035.08 1035.20 1035.28 1035.36 1035.40 1035.40 1035.44 1035.44 1035.52 1035.60 1035.76 1035.80 1035.80 1035.72
1021.24 1021.76 1022.24 1022.60 1023.04 1023.44 1023.88 1024.28 1024.72 1025.12 1025.56 1026.04 1026.36 1026.60 1027.08 1027.56 1027.92 1028.28 1028.64 1029.00 1029.36 1029.60 1029.84 1030.04 1030.32 1030.60 1030.96 1031.44 1031.88 1032.20 1032.40 1032.56 1032.68 1032.76 1032.88 1033.00 1033.16 1033.48 1033.76 1034.00 1034.24 1034.44 1034.60 1034.68 1034.76 1034.84 1034.96 1035.04 1035.12 1035.24 1035.36 1035.36 1035.40 1035.40 1035.48 1035.52 1035.60 1035.80 1035.92 1035.88 1035.76 1035.56
1020.88 1021.28 1021.68 1022.24 1022.64 1023.04 1023.44 1023.88 1024.16 1024.60 1025.00 1025.40 1025.92 1026.36 1026.84 1027.32 1027.72 1028.08 1028.48 1028.72 1029.04 1029.24 1029.48 1029.76 1030.04 1030.36 1030.84 1031.32 1031.72 1032.00 1032.16 1032.32 1032.44 1032.60 1032.76 1032.92 1033.16 1033.44 1033.72 1034.00 1034.24 1034.48 1034.64 1034.76 1034.88 1034.96 1035.00 1035.04 1035.12 1035.32 1035.44 1035.48 1035.52 1035.52 1035.52 1035.60 1035.76 1035.92 1035.96 1035.84 1035.60 1035.36
1020.16 1020.60 1021.00 1021.36 1021.88 1022.36 1022.80 1023.28 1023.76 1024.28 1024.80 1025.20 1025.52 1025.96 1026.48 1026.96 1027.40 1027.80 1028.12 1028.44 1028.68 1028.88 1029.16 1029.52 1029.88 1030.28 1030.72 1031.16 1031.52 1031.76 1031.92 1032.08 1032.28 1032.48 1032.68 1032.88 1033.12 1033.40 1033.68 1033.96 1034.24 1034.48 1034.72 1034.88 1034.96 1034.92 1034.92 1034.96 1035.20 1035.44 1035.60 1035.60 1035.52 1035.52 1035.68 1035.72 1035.88 1035.92 1035.88 1035.68 1035.48 1035.24
1018.96 1019.52 1020.12 1020.72 1021.16 1021.64 1022.08 1022.60 1023.12 1023.56 1024.04 1024.60 1025.12 1025.68 1026.28 1026.72 1027.12 1027.36 1027.72 1028.00 1028.24 1028.56 1028.88 1029.20 1029.64 1030.08 1030.52 1030.96 1031.24 1031.48 1031.72 1031.92 1032.16 1032.36 1032.56 1032.80 1033.04 1033.36 1033.64 1034.00 1034.32 1034.52 1034.72 1034.80 1034.80 1034.80 1034.80 1035.00 1035.28 1035.36 1035.40 1035.40 1035.48 1035.60 1035.68 1035.76 1035.84 1035.84 1035.72 1035.56 1035.36 1035.16
1018.56 1019.24 1019.68 1020.00 1020.40 1020.72 1021.20 1021.76 1022.48 1023.20 1023.84 1024.36 1024.80 1025.28 1025.84 1026.36 1026.76 1027.04 1027.24 1027.56 1027.92 1028.24 1028.60 1028.96 1029.40 1029.84 1030.28 1030.64 1031.00 1031.28 1031.52 1031.76 1032.00 1032.20 1032.36 1032.60 1032.96 1033.28 1033.64 1034.04 1034.32 1034.48 1034.48 1034.52 1034.52 1034.64 1034.80 1035.04 1035.28 1035.24 1035.20 1035.20 1035.20 1035.48 1035.68 1035.80 1035.84 1035.68 1035.52 1035.36 1035.24 1035.16
1018.12 1018.44 1018.68 1019.12 1019.68 1020.28 1020.84 1021.44 1022.00 1022.68 1023.24 1023.80 1024.36 1024.92 1025.52 1026.04 1026.36 1026.56 1026.88 1027.24 1027.60 1027.96 1028.28 1028.68 1029.12 1029.60 1030.00 1030.32 1030.64 1030.88 1031.16 1031.48 1031.68 1031.92 1032.16 1032.52 1032.92 1033.32 1033.72 1034.00 1034.08 1034.12 1034.20 1034.28 1034.44 1034.60 1034.76 1035.00 1035.00 1034.96 1035.04 1035.16 1035.24 1035.40 1035.60 1035.72 1035.68 1035.52 1035.36 1035.24 1035.12 1035.08
1017.04 1017.92 1018.48 1019.12 1019.52 1019.88 1020.20 1020.80 1021.56 1022.00 1022.56 1023.32 1023.88 1024.64 1025.20 1025.56 1025.88 1026.20 1026.52 1026.84 1027.16 1027.56 1027.96 1028.36 1028.80 1029.24 1029.60 1029.92 1030.20 1030.52 1030.88 1031.12 1031.40 1031.68 1032.04 1032.44 1032.84 1033.28 1033.52 1033.60 1033.68 1033.80 1033.96 1034.20 1034.40 1034.56 1034.60 1034.76 1034.68 1034.80 1034.96 1035.12 1035.28 1035.36 1035.44 1035.56 1035.48 1035.44 1035.32 1035.16 1035.12 1035.12
1016.64 1017.44 1017.84 1018.32 1018.96 1019.60 1020.16 1020.60 1020.96 1021.64 1022.32 1023.00 1023.68 1024.16 1024.60 1025.04 1025.44 1025.72 1026.00 1026.36 1026.68 1027.08 1027.52 1027.96 1028.40 1028.76 1029.12 1029.48 1029.84 1030.16 1030.52 1030.80 1031.08 1031.44 1031.88 1032.36 1032.72 1032.96 1033.12 1033.20 1033.40 1033.60 1033.80 1034.04 1034.20 1034.32 1034.36 1034.48 1034.56 1034.72 1034.92 1035.12 1035.20 1035.28 1035.32 1035.44 1035.44 1035.36 1035.24 1035.16 1035.08 1035.04
1015.88 1016.80 1017.40 1017.88 1018.40 1019.08 1019.84 1020.40 1020.84 1021.40 1022.04 1022.44 1023.00 1023.48 1024.00 1024.48 1024.84 1025.20 1025.44 1025.76 1026.16 1026.60 1027.04 1027.48 1027.84 1028.24 1028.68 1029.08 1029.44 1029.80 1030.16 1030.48 1030.88 1031.32 1031.72 1032.04 1032.28 1032.48 1032.64 1032.84 1033.08 1033.32 1033.56 1033.76 1033.96 1034.08 1034.12 1034.32 1034.44 1034.68 1034.88 1035.00 1035.12 1035.16 1035.20 1035.36 1035.28 1035.24 1035.16 1035.00 1034.88 1034.80
1014.92 1015.48 1016.24 1017.16 1018.16 1018.68 1019.08 1019.52 1020.20 1020.92 1021.36 1021.96 1022.52 1023.04 1023.52 1023.92 1024.28 1024.56 1024.92 1025.24 1025.56 1025.92 1026.24 1026.72 1027.24 1027.72 1028.16 1028.60 1029.00 1029.40 1029.76 1030.16 1030.52 1030.96 1031.40 1031.72 1032.00 1032.20 1032.36 1032.60 1032.80 1033.00 1033.24 1033.48 1033.72 1033.92 1034.04 1034.20 1034.32 1034.60 1034.80 1034.92 1035.00 1035.00 1035.16 1035.24 1035.20 1035.12 1034.96 1034.80 1034.72 1034.68
1014.60 1015.24 1016.00 1016.68 1017.16 1017.64 1018.16 1018.88 1019.64 1020.20 1020.88 1021.48 1021.84 1022.32 1022.80 1023.24 1023.52 1023.76 1024.08 1024.40 1024.68 1025.04 1025.48 1026.00 1026.56 1027.12 1027.56 1028.04 1028.52 1028.96 1029.36 1029.76 1030.28 1030.68 1031.00 1031.32 1031.56 1031.80 1032.00 1032.20 1032.40 1032.64 1032.96 1033.24 1033.52 1033.76 1034.00 1034.16 1034.20 1034.48 1034.64 1034.80 1034.84 1035.00 1035.16 1035.12 1035.08 1034.96 1034.84 1034.72 1034.68 1034.68
1014.20 1014.88 1015.40 1016.00 1016.52 1016.80 1017.32 1018.08 1018.76 1019.44 1020.08 1020.64 1021.12 1021.64 1021.96 1022.24 1022.32 1022.64 1023.08 1023.36 1023.76 1024.28 1024.88 1025.40 1025.88 1026.40 1026.96 1027.48 1027.92 1028.40 1028.92 1029.40 1029.84 1030.16 1030.44 1030.68 1031.00 1031.32 1031.60 1031.88 1032.16 1032.36 1032.64 1032.96 1033.32 1033.60 1033.92 1034.04 1034.12 1034.28 1034.48 1034.60 1034.72 1034.88 1035.12 1035.08 1034.96 1034.92 1034.84 1034.80 1034.68 1034.76
1013.56 1014.20 1014.84 1015.36 1015.76 1016.16 1016.84 1017.48 1018.16 1018.80 1019.20 1019.64 1020.04 1020.40 1020.76 1020.92 1021.16 1021.68 1022.04 1022.56 1023.16 1023.76 1024.24 1024.76 1025.32 1025.84 1026.40 1026.96 1027.48 1027.96 1028.40 1028.84 1029.16 1029.52 1029.96 1030.24 1030.56 1030.92 1031.32 1031.68 1031.84 1032.08 1032.40 1032.72 1033.08 1033.40 1033.72 1033.92 1033.96 1034.04 1034.28 1034.40 1034.52 1034.64 1034.88 1034.92 1034.92 1034.96 1034.88 1034.76 1034.84 1034.80
1013.72 1014.24 1014.48 1014.68 1014.92 1015.76 1016.48 1017.04 1017.60 1017.96 1018.28 1018.72 1019.20 1019.64 1019.56 1019.56 1019.96 1020.64 1021.52 1022.20 1022.68 1023.24 1023.80 1024.28 1024.84 1025.40 1025.92 1026.44 1027.00 1027.48 1027.88 1028.36 1028.88 1029.16 1029.48 1029.92 1030.28 1030.76 1031.12 1031.40 1031.56 1031.76 1032.16 1032.56 1032.96 1033.32 1033.60 1033.84 1033.92 1033.96 1034.04 1034.20 1034.28 1034.36 1034.68 1034.80 1034.96 1034.92 1034.80 1034.72 1034.80 1034.96
1013.24 1013.56 1013.96 1014.36 1015.04 1015.76 1016.32 1017.00 1017.52 1017.76 1017.96 1018.44 1018.92 1018.60 1018.40 1019.20 1020.16 1020.80 1021.20 1021.76 1022.32 1022.80 1023.32 1023.84 1024.32 1024.80 1025.36 1025.80 1026.28 1026.88 1027.48 1027.88 1028.16 1028.60 1029.08 1029.56 1030.08 1030.52 1030.92 1031.12 1031.28 1031.52 1031.96 1032.40 1032.84 1033.32 1033.56 1033.72 1033.84 1033.80 1033.80 1033.96 1034.04 1034.08 1034.32 1034.68 1034.68 1034.68 1034.72 1034.76 1034.80 1034.68
1013.04 1013.36 1013.76 1014.12 1014.60 1015.20 1015.84 1016.44 1017.00 1017.28 1017.88 1018.20 1017.92 1017.44 1018.52 1019.48 1019.88 1020.44 1020.96 1021.36 1021.80 1022.32 1022.88 1023.32 1023.80 1024.40 1024.88 1025.44 1026.04 1026.60 1027.04 1027.36 1027.68 1028.08 1028.60 1029.16 1029.68 1030.16 1030.60 1030.88 1031.12 1031.40 1031.80 1032.28 1032.68 1033.00 1033.28 1033.40 1033.56 1033.68 1033.64 1033.72 1033.80 1033.88 1033.96 1034.40 1034.48 1034.40 1034.52 1034.56 1034.40 1034.36
1012.64 1012.88 1013.16 1013.72 1014.20 1014.72 1015.20 1015.76 1016.16 1016.56 1016.92 1017.04 1016.20 1017.24 1018.40 1018.84 1019.48 1019.92 1020.40 1020.88 1021.32 1021.68 1022.08 1022.60 1023.20 1023.72 1024.24 1024.84 1025.32 1025.80 1026.32 1026.84 1027.36 1027.88 1028.36 1028.84 1029.40 1029.88 1030.36 1030.72 1031.00 1031.36 1031.72 1032.16 1032.52 1032.80 1033.04 1033.20 1033.36 1033.48 1033.68 1033.60 1033.60 1033.64 1033.72 1033.92 1034.12 1033.96 1033.96 1034.08 1034.24 1034.20
1012.32 1012.64 1012.96 1013.36 1013.76 1014.20 1014.64 1015.12 1015.48 1015.76 1016.04 1015.48 1015.88 1017.40 1017.92 1018.52 1018.96 1019.56 1020.04 1020.32 1020.52 1021.00 1021.52 1022.00 1022.56 1023.08 1023.52 1024.08 1024.68 1025.28 1025.76 1026.36 1026.92 1027.52 1027.96 1028.44 1028.96 1029.60 1030.16 1030.64 1030.92 1031.28 1031.64 1031.92 1032.32 1032.60 1032.80 1032.92 1033.16 1033.28 1033.48 1033.60 1033.40 1033.40 1033.52 1033.56 1033.56 1033.60 1033.80 1033.80 1033.92 1033.96
1012.00 1012.40 1012.80 1013.04 1013.20 1013.48 1013.84 1014.16 1014.56 1014.92 1015.00 1014.64 1015.96 1016.56 1017.12 1017.72 1018.36 1018.84 1019.20 1019.52 1019.96 1020.44 1020.96 1021.56 1022.08 1022.52 1022.96 1023.52 1024.04 1024.64 1025.24 1025.96 1026.52 1027.20 1027.76 1028.16 1028.72 1029.20 1029.64 1030.24 1030.60 1030.88 1031.20 1031.56 1031.80 1032.00 1032.32 1032.52 1032.80 1033.08 1033.16 1033.28 1033.28 1033.24 1033.24 1033.28 1033.32 1033.40 1033.32 1033.48 1033.72 1033.80
1011.88 1012.20 1012.40 1012.72 1012.92 1013.16 1013.40 1013.68 1013.92 1014.16 1013.64 1014.52 1015.36 1015.76 1016.32 1016.92 1017.48 1017.96 1018.28 1018.80 1019.36 1019.88 1020.52 1021.20 1021.72 1022.12 1022.52 1023.00 1023.36 1023.64 1024.04 1024.68 1025.52 1026.16 1027.04 1027.60 1028.12 1028.60 1029.04 1029.68 1030.20 1030.52 1030.80 1031.04 1031.24 1031.44 1031.72 1032.12 1032.48 1032.72 1032.92 1032.96 1033.12 1033.12 1033.04 1033.08 1033.20 1033.24 1033.28 1033.36 1033.60 1033.56
1011.64 1011.76 1011.96 1012.12 1012.40 1012.72 1013.00 1013.24 1013.36 1013.24 1013.68 1014.48 1014.76 1015.24 1015.76 1016.36 1016.88 1017.36 1017.88 1018.28 1018.80 1019.44 1020.04 1020.48 1021.00 1021.52 1022.08 1022.52 1022.88 1023.28 1023.80 1024.40 1024.96 1025.48 1026.20 1026.72 1027.28 1028.00 1028.56 1029.08 1029.60 1030.00 1030.28 1030.52 1030.68 1031.00 1031.36 1031.88 1032.20 1032.48 1032.60 1032.72 1032.88 1033.00 1033.04 1033.08 1033.16 1033.12 1033.20 1033.40 1033.64 1033.88
1011.16 1011.28 1011.48 1011.64 1011.84 1012.16 1012.36 1012.64 1012.76 1012.92 1013.40 1013.80 1014.28 1014.76 1015.40 1015.88 1016.28 1016.64 1017.08 1017.60 1018.12 1018.68 1019.24 1019.68 1020.12 1020.72 1021.24 1021.76 1022.16 1022.68 1023.36 1023.92 1024.20 1024.60 1025.04 1025.48 1026.04 1026.88 1027.68 1028.20 1028.68 1028.96 1029.20 1029.64 1030.08 1030.64 1031.16 1031.60 1031.92 1032.08 1032.20 1032.32 1032.56 1032.76 1032.92 1033.04 1033.12 1033.12 1033.32 1033.48 1033.92 1034.16
1010.76 1010.76 1010.96 1010.96 1011.20 1011.60 1011.88 1012.04 1012.16 1012.52 1012.92 1013.28 1013.76 1014.24 1014.72 1015.08 1015.48 1016.00 1016.52 1017.08 1017.60 1018.00 1018.48 1018.92 1019.52 1019.96 1020.52 1021.20 1021.68 1021.80 1021.96 1022.36 1023.00 1023.48 1024.12 1024.36 1024.44 1024.76 1025.48 1026.52 1027.16 1027.60 1028.00 1028.56 1029.24 1030.00 1030.72 1031.20 1031.32 1031.32 1031.48 1031.84 1032.00 1032.36 1032.60 1032.68 1032.72 1032.88 1033.04 1033.16 1033.64 1034.16
1010.40 1010.64 1010.76 1010.76 1011.04 1011.28 1011.40 1011.56 1011.80 1012.12 1012.48 1012.88 1013.36 1013.84 1014.16 1014.56 1015.24 1015.80 1016.16 1016.52 1016.84 1017.16 1017.76 1018.32 1018.88 1019.48 1019.96 1020.44 1020.96 1021.56 1022.24 1022.72 1023.00 1023.16 1023.28 1023.88 1024.44 1024.72 1024.80 1024.96 1025.64 1026.32 1027.28 1028.12 1028.52 1028.68 1029.08 1029.72 1030.08 1030.56 1030.84 1031.12 1031.36 1031.64 1031.88 1032.04 1032.16 1032.36 1032.68 1032.80 1033.20 1033.80
1010.08 1010.24 1010.40 1010.52 1010.76 1010.84 1010.92 1011.12 1011.36 1011.72 1012.04 1012.44 1012.84 1013.28 1013.60 1014.20 1014.76 1015.20 1015.48 1015.84 1015.96 1016.20 1016.84 1017.56 1018.20 1018.76 1019.24 1019.76 1020.32 1020.96 1021.76 1022.64 1023.08 1023.24 1023.52 1023.88 1024.16 1024.44 1024.60 1025.04 1025.56 1026.16 1026.64 1027.16 1028.00 1028.60 1028.84 1029.28 1029.64 1029.88 1030.16 1030.52 1030.80 1031.04 1031.24 1031.40 1031.60 1031.88 1032.12 1032.60 1033.32 1033.84
1009.76 1009.80 1009.60 1009.88 1010.24 1010.36 1010.60 1010.84 1011.00 1011.16 1011.44 1011.84 1012.20 1012.64 1013.12 1013.60 1013.92 1014.24 1014.40 1014.72 1015.16 1015.88 1016.44 1016.88 1017.44 1018.12 1018.64 1019.20 1019.88 1020.56 1021.28 1022.08 1022.84 1023.36 1023.48 1023.76 1024.16 1024.32 1024.48 1024.80 1025.24 1025.76 1026.32 1026.88 1027.36 1027.88 1028.48 1028.76 1029.00 1029.28 1029.56 1030.00 1030.36 1030.72 1030.96 1031.20 1031.44 1031.68 1031.92 1032.24 1032.84 1033.52
1009.04 1009.20 1009.40 1009.68 1009.88 1010.04 1010.20 1010.32 1010.28 1010.52 1010.96 1011.36 1011.72 1012.08 1012.52 1012.88 1013.16 1013.40 1013.80 1014.28 1014.80 1015.32 1015.88 1016.44 1016.92 1017.44 1017.96 1018.64 1019.36 1020.08 1020.72 1021.36 1021.88 1022.56 1023.52 1024.12 1024.24 1024.24 1024.40 1024.68 1025.00 1025.36 1025.88 1026.36 1026.88 1027.28 1027.72 1028.16 1028.52 1028.80 1029.16 1029.60 1030.08 1030.48 1030.76 1031.04 1031.32 1031.52 1031.96 1032.36 1033.08 1033.56
1008.72 1009.04 1009.20 1009.32 1009.48 1009.64 1009.80 1009.88 1009.76 1010.04 1010.40 1010.88 1011.28 1011.60 1011.80 1012.08 1012.40 1012.60 1013.08 1013.60 1014.04 1014.64 1015.20 1015.64 1015.96 1016.56 1017.16 1017.72 1018.40 1018.96 1019.72 1020.28 1020.76 1021.44 1022.48 1023.56 1024.28 1024.56 1024.64 1024.76 1024.88 1025.12 1025.52 1026.00 1026.44 1026.88 1027.36 1027.80 1028.16 1028.44 1028.88 1029.36 1029.84 1030.20 1030.56 1030.92 1031.20 1031.68 1032.04 1032.56 1033.16 1033.52
1008.48 1008.60 1008.64 1008.76 1009.08 1009.36 1009.52 1009.40 1009.28 1009.52 1010.00 1010.44 1010.88 1011.24 1011.52 1011.76 1012.08 1012.48 1012.76 1013.12 1013.60 1014.04 1014.40 1014.80 1015.20 1015.76 1016.48 1017.24 1017.84 1018.40 1019.04 1019.72 1020.36 1020.96 1021.96 1022.52 1022.80 1023.20 1023.60 1024.12 1024.56 1025.04 1025.28 1025.68 1026.12 1026.52 1026.96 1027.36 1027.76 1028.08 1028.60 1029.08 1029.56 1029.96 1030.28 1030.76 1031.44 1031.96 1032.28 1032.88 1033.40 1033.52
1008.16 1008.16 1008.32 1008.64 1008.88 1009.08 1009.16 1009.04 1009.00 1009.32 1009.72 1010.16 1010.48 1010.80 1011.04 1011.36 1011.72 1012.04 1012.36 1012.76 1013.16 1013.40 1013.68 1014.12 1014.56 1015.08 1015.68 1016.24 1016.84 1017.40 1018.12 1018.96 1019.80 1020.56 1021.40 1022.00 1022.36 1022.68 1023.28 1024.04 1024.36 1024.64 1025.04 1025.52 1025.92 1026.16 1026.52 1027.04 1027.52 1028.00 1028.36 1028.84 1029.24 1029.64 1029.96 1031.24 1031.80 1032.12 1032.60 1032.96 1033.32 1033.56
Wind_Speed
11 11 11 11 11 9 8 8 8 8 7 7 8 10 7 6 6 7 7 6 6 6 7 8 8 7 7 7 7 6 6 7 6 5 5 4 3 4 5 5 5 5 4 4 3 4 4 4 4 4 4 5 5 5 5 4 4 4 4 4 4 3
13 13 13 13 13 12 10 10 8 9 8 8 8 7 8 7 7 7 8 7 7 7 7 7 7 7 7 7 6 6 6 6 5 5 5 5 4 5 5 4 4 3 4 4 3 4 4 4 4 4 4 5 4 4 4 3 4 4 4 3 4 2
13 12 11 10 10 10 10 9 10 9 9 9 9 10 10 8 7 7 7 7 8 9 8 8 8 8 7 7 6 6 6 5 5 5 4 4 5 5 4 4 4 3 4 3 4 3 3 4 4 4 4 4 3 3 3 4 4 3 3 2 3 3
13 12 11 10 10 11 11 10 9 10 10 9 9 9 9 10 9 7 8 7 8 9 9 8 7 6 7 7 6 6 6 5 5 5 5 5 5 5 5 4 4 3 3 3 3 3 3 3 4 3 3 3 3 3 2 3 3 2 2 2 2 3
13 13 13 13 12 11 11 10 10 10 10 10 10 10 9 9 9 9 9 9 9 9 8 8 7 7 7 7 6 7 6 5 5 5 6 5 5 4 4 4 4 4 3 3 4 3 3 3 3 3 3 3 3 3 3 2 1 1 2 3 3 3
13 13 13 13 11 12 13 12 10 10 11 10 10 10 11 10 9 9 9 9 9 9 8 8 7 8 7 7 6 7 6 5 5 5 5 5 5 5 4 4 4 4 3 4 4 4 3 3 3 3 2 2 2 2 1 2 2 2 3 3 3 3
15 14 13 13 13 13 13 13 13 12 12 11 12 11 10 10 10 10 9 9 10 9 9 8 8 8 8 7 7 7 6 6 6 4 5 6 6 5 5 4 3 4 4 4 3 3 3 3 3 2 1 1 2 1 1 2 3 3 3 3 2 3
13 13 14 13 14 14 14 13 12 12 12 11 11 12 11 10 9 10 10 10 10 10 10 10 9 9 8 8 7 7 7 6 5 5 5 5 6 5 4 4 3 3 4 3 3 3 3 3 2 1 1 2 2 2 1 2 2 3 2 2 2 2
17 16 16 14 14 13 12 13 13 13 13 12 11 11 11 10 10 10 10 10 10 10 10 10 10 9 9 9 8 7 7 7 6 6 6 5 5 6 5 4 4 3 3 4 3 3 3 2 2 2 3 2 2 2 1 1 1 1 1 2 3 3
15 16 16 15 14 14 13 13 13 14 14 14 13 11 11 10 11 11 11 11 10 10 10 9 9 8 9 8 8 7 7 7 6 6 5 5 5 5 5 5 4 4 3 3 3 3 3 2 3 4 3 2 1 0 1 1 1 1 2 3 3 3
17 18 18 18 17 17 16 14 14 13 12 11 12 12 12 12 12 12 11 11 11 11 10 9 8 7 8 9 8 8 7 7 6 6 6 5 5 5 5 4 4 4 4 4 4 3 3 2 4 3 2 1 1 1 1 1 2 2 2 3 3 3
21 20 19 17 18 18 17 15 15 15 15 14 13 13 12 12 13 12 12 12 11 10 10 10 9 9 9 9 9 8 7 7 7 7 6 6 6 5 5 4 4 4 5 5 4 3 3 3 3 4 5 3 2 1 2 2 3 2 3 3 3 3
16 16 17 18 19 20 18 16 15 13 13 13 13 13 13 12 13 12 12 12 11 11 10 10 10 10 10 9 9 8 8 8 7 7 6 6 6 6 5 5 5 5 4 4 4 4 4 3 3 7 5 3 2 2 2 3 3 3 3 3 3 2
18 19 20 20 19 18 16 15 15 15 15 14 14 13 13 13 13 13 12 11 11 11 12 11 11 11 10 10 10 10 9 8 8 7 7 6 7 6 6 6 5 5 4 4 3 3 4 4 7 7 5 4 4 3 3 3 4 3 3 3 2 1
15 17 16 14 15 17 17 15 14 16 15 15 14 12 14 14 14 13 12 12 12 12 12 11 12 11 11 10 10 9 9 9 8 8 8 8 7 6 7 6 6 5 4 4 4 4 3 4 7 7 6 5 5 5 4 4 4 3 3 3 2 2
11 14 15 15 14 14 13 14 14 13 12 13 13 15 15 15 14 13 13 13 13 13 12 12 12 12 11 11 10 10 10 9 9 8 7 7 7 7 7 6 6 5 5 5 5 4 4 4 8 7 6 6 6 5 5 4 3 3 3 3 3 3
13 12 14 15 16 14 14 14 13 13 13 15 15 15 15 14 14 14 14 14 13 12 13 13 13 12 12 11 11 11 11 10 9 9 8 8 9 8 8 8 7 6 6 5 5 3 3 5 10 8 7 6 6 6 5 3 3 3 3 4 3 1
18 18 17 13 13 14 15 16 14 14 14 13 15 14 14 14 15 14 13 14 14 14 14 14 14 13 12 13 12 12 12 11 11 11 9 8 7 6 6 6 6 6 6 5 5 4 4 4 12 9 8 7 6 6 3 2 3 3 3 2 1 1
14 14 13 14 16 17 17 15 15 15 14 15 15 16 15 15 16 16 16 15 16 16 15 15 15 14 14 14 13 13 12 12 11 10 8 9 8 8 8 7 7 6 7 6 6 5 4 4 10 11 10 8 7 5 1 2 2 3 2 1 1 1
12 12 15 16 17 18 16 17 17 17 16 16 16 17 17 18 19 17 17 17 16 16 15 15 15 15 15 14 15 14 12 11 9 10 9 10 10 9 8 7 7 7 7 7 6 6 5 4 10 13 10 9 8 5 2 3 2 2 2 2 1 1
15 15 15 17 19 19 17 17 19 18 18 18 19 19 19 20 19 18 18 17 15 15 15 15 15 15 15 15 14 13 13 13 12 10 9 9 8 8 7 7 7 7 6 6 6 8 7 4 8 13 11 10 8 5 3 3 2 2 3 1 1 1
10 12 16 19 19 17 18 18 18 19 19 19 18 19 21 21 20 18 15 15 15 14 14 14 15 15 15 15 14 13 13 11 10 11 10 9 8 8 7 7 7 7 7 6 6 5 6 5 4 7 12 10 9 9 4 2 2 3 2 1 2 2
12 15 16 15 14 14 15 15 16 18 17 16 17 21 21 16 14 14 15 14 14 15 15 14 15 16 14 14 14 13 11 11 12 11 11 11 8 8 7 8 7 7 7 6 6 6 5 6 5 8 13 11 11 10 9 4 5 4 3 2 3 3
11 11 11 11 13 14 15 16 17 17 15 16 20 22 13 12 14 14 14 15 16 15 15 15 14 14 13 12 13 13 12 11 11 11 11 9 9 10 9 7 6 7 6 6 7 7 7 7 9 5 11 12 11 10 11 6 5 5 4 4 3 3
12 14 13 11 12 14 15 17 18 17 17 19 24 15 12 13 13 14 15 15 16 16 16 16 16 15 13 13 14 14 13 11 11 11 11 11 10 10 9 9 7 7 6 5 6 6 6 6 7 11 7 10 11 11 11 11 8 9 6 4 3 3
10 11 11 11 12 13 14 17 18 18 18 24 16 11 12 12 13 13 14 15 16 16 15 15 15 15 13 15 14 14 14 13 12 12 11 11 11 10 9 8 8 7 8 8 7 7 7 6 6 9 12 8 11 11 11 11 11 10 5 4 3 3
11 10 9 11 13 14 15 16 18 19 22 19 11 14 14 14 14 15 15 16 15 15 14 13 14 15 14 14 15 15 14 13 13 12 10 11 10 10 10 9 9 9 9 8 8 8 8 7 7 6 9 12 10 11 11 11 10 9 8 2 0 1
8 9 11 10 12 13 13 15 16 20 22 13 12 14 14 14 15 16 17 15 14 15 13 14 14 14 14 15 14 15 14 16 15 14 12 12 11 11 11 10 10 9 9 9 8 8 7 6 6 6 7 7 9 9 10 11 10 8 6 5 4 5
9 10 11 13 12 13 12 13 15 17 13 11 13 13 13 14 15 15 15 16 14 13 14 16 14 14 13 14 13 12 12 12 13 13 13 13 12 11 11 10 10 10 9 9 8 7 7 7 6 6 6 6 6 5 5 5 5 6 6 3 2 5
11 12 12 13 12 12 13 14 15 15 13 12 11 11 13 14 16 16 16 16 14 13 15 15 18 17 13 14 14 13 12 12 13 14 15 15 15 14 13 12 12 12 12 10 9 8 7 7 7 7 7 8 7 6 5 4 3 3 2 3 4 5
12 13 13 13 11 11 12 13 14 13 13 12 12 13 15 16 16 15 15 14 13 14 14 14 14 14 14 13 13 13 14 16 16 15 13 13 13 16 17 15 13 12 10 10 11 10 9 8 9 9 9 9 10 9 7 6 5 4 4 5 10 6
11 11 12 12 8 10 11 13 12 11 11 11 11 12 15 15 13 13 14 14 14 14 14 13 13 13 13 14 14 13 10 9 7 9 13 13 12 13 16 17 14 14 11 10 9 10 13 12 10 14 19 18 17 17 14 11 10 9 7 7 14 7
10 10 11 10 8 10 12 11 11 11 11 12 12 14 15 13 13 13 13 14 14 15 14 13 13 13 13 13 13 12 11 9 8 13 13 10 12 15 18 18 14 17 16 13 10 9 11 10 16 19 19 19 18 17 14 12 11 9 10 13 9 4
10 12 14 11 10 10 9 10 10 12 11 12 13 13 14 14 14 14 14 14 13 14 14 12 13 13 13 12 11 12 12 12 11 8 9 14 15 18 19 18 17 19 19 17 14 11 8 13 18 19 19 19 17 15 13 12 11 11 11 8 9 4
12 11 10 8 9 9 10 11 12 11 10 11 12 13 14 15 16 15 13 12 12 13 14 13 13 13 13 13 13 12 13 13 13 13 10 8 13 18 17 18 18 20 20 19 19 19 16 15 16 18 19 18 17 15 13 12 12 12 10 9 5 5
8 8 9 9 9 11 10 11 12 10 10 11 12 13 15 16 16 16 13 12 14 13 13 14 14 13 13 13 13 14 14 14 14 13 13 12 11 10 12 15 19 19 20 20 20 19 19 19 19 20 19 18 17 16 14 12 9 10 9 8 6 6
7 7 10 11 9 9 10 12 12 10 9 10 12 13 13 14 14 12 13 17 14 12 13 13 13 13 12 12 13 13 14 13 13 12 14 14 16 15 15 13 13 16 19 16 16 19 20 20 20 20 19 18 17 16 15 12 7 6 3 4 4 6
8 9 8 7 7 8 10 11 10 7 8 10 11 13 14 13 13 13 11 11 14 13 12 12 12 12 13 14 14 14 13 13 12 12 12 12 11 12 12 10 10 10 16 19 15 20 21 21 20 19 19 18 18 17 17 8 7 7 6 6 5 6
Wind_Direction
167 158 158 152 149 150 149 146 147 153 153 150 147 145 147 141 134 125 117 114 116 118 118 117 116 117 118 119 120 122 122 121 126 126 121 118 107 93 84 79 75 78 76 74 71 65 62 54 54 43 35 50 43 43 39 21 16 17 27 32 40 6
163 159 156 155 155 153 153 150 148 150 149 147 144 134 134 140 139 131 124 121 123 123 119 118 118 121 120 121 123 122 122 123 125 126 115 109 104 88 91 96 92 94 93 84 77 74 68 62 50 46 41 50 44 47 34 9 27 18 20 26 354 29
156 154 152 151 150 150 148 155 155 152 153 154 154 148 147 146 145 134 127 128 131 131 130 130 130 129 125 122 125 124 126 126 117 116 116 102 101 109 101 100 104 98 97 92 87 79 73 68 53 50 44 47 42 22 54 20 25 20 348 42 347 28
153 150 149 150 153 154 155 158 157 159 165 164 156 154 157 152 150 142 134 136 137 139 137 135 132 130 128 132 131 129 127 124 127 123 119 115 103 109 114 103 104 100 98 101 88 81 76 68 65 54 52 49 33 18 41 38 14 4 355 4 19 30
154 152 155 156 158 161 155 159 166 169 167 166 166 162 162 159 151 145 145 145 147 142 139 138 138 137 139 136 137 137 135 136 136 133 127 128 123 102 108 115 105 107 105 99 97 88 78 73 62 51 66 34 50 31 21 20 357 8 16 24 22 26
151 153 160 161 160 160 168 172 171 171 173 171 166 167 162 159 155 151 150 149 148 145 143 144 144 145 145 143 143 141 139 139 138 134 132 128 124 123 113 116 121 112 107 101 97 92 78 67 72 66 71 68 67 48 25 352 14 22 29 30 14 4
162 164 166 170 169 173 173 172 176 174 174 173 172 167 167 161 158 155 155 153 151 152 151 151 153 152 150 148 146 147 144 143 141 139 133 127 129 134 128 116 117 111 106 103 102 92 84 91 92 79 73 85 80 74 32 12 19 19 23 15 335 329
164 167 172 175 178 178 177 177 175 176 177 178 173 166 166 168 158 158 156 157 157 159 160 159 160 161 156 151 150 150 150 149 146 144 138 135 131 127 128 132 118 119 117 112 106 104 112 106 115 161 138 108 79 61 27 18 14 14 4 318 317 294
174 174 177 182 181 180 178 176 179 178 176 174 175 171 166 164 161 162 162 163 164 164 165 165 167 163 156 153 153 154 154 151 150 143 140 139 135 135 135 129 132 124 122 119 116 128 135 153 153 119 75 59 47 52 28 356 24 322 311 281 279 291
173 177 180 181 183 181 181 182 183 180 179 176 174 171 167 167 164 165 168 167 167 169 168 168 166 159 153 151 156 158 155 153 149 146 141 134 138 135 135 140 137 140 132 139 141 154 154 165 127 92 68 48 73 31 343 344 294 291 279 273 279 277
180 180 183 186 182 182 182 183 183 182 182 178 175 171 172 166 166 171 171 169 172 173 169 164 161 154 151 154 158 157 157 154 150 145 143 144 141 136 136 136 139 140 150 158 161 153 146 131 112 98 98 131 163 193 240 265 273 263 268 278 280 278
185 185 184 184 184 184 185 184 185 184 182 178 175 172 170 167 176 173 172 175 176 170 168 164 161 158 156 158 160 161 157 157 155 153 153 150 142 141 141 140 155 163 170 169 166 154 139 138 110 143 158 172 173 230 241 252 261 266 268 270 277 283
184 183 187 188 188 188 186 186 182 179 180 178 175 174 172 172 176 177 177 177 174 170 166 165 164 160 163 162 161 161 162 162 160 158 154 148 148 151 151 159 166 176 176 163 159 158 159 138 135 163 177 181 200 200 240 253 267 267 260 260 262 265
187 189 192 192 191 187 185 183 180 178 183 177 177 174 170 175 180 180 179 176 171 171 170 168 163 163 164 164 168 166 166 162 159 160 156 155 154 159 160 166 175 175 169 156 151 158 167 148 162 168 173 197 210 217 233 254 254 258 262 263 273 300
189 190 189 189 192 191 190 181 177 184 180 177 176 165 174 181 182 180 178 177 174 174 172 166 167 166 168 170 168 166 164 164 162 163 164 169 166 160 168 176 167 172 161 159 169 177 178 146 169 168 183 203 209 222 233 240 246 260 264 277 280 274
186 185 187 191 194 193 186 184 185 180 174 172 169 175 179 180 183 181 180 178 179 175 171 168 170 171 172 168 168 166 168 169 171 170 168 164 164 170 169 170 170 168 172 170 177 174 167 151 175 177 193 204 213 225 234 238 247 261 263 258 264 260
185 179 184 189 189 186 181 187 183 174 175 176 178 181 179 183 182 183 183 182 179 173 171 172 175 173 171 171 171 171 172 172 170 171 172 171 172 173 173 173 173 174 171 168 166 167 168 161 178 184 194 206 219 228 236 236 249 240 247 252 251 249
189 189 190 180 177 184 187 189 178 175 181 175 179 180 183 183 186 187 184 183 180 178 178 175 175 173 172 173 174 173 175 173 175 175 172 168 166 168 163 173 167 173 169 162 162 166 184 179 187 186 196 212 219 225 221 227 230 244 252 262 264 275
187 187 179 181 187 185 187 180 177 179 175 179 183 183 184 185 189 190 187 186 184 182 179 177 175 175 176 176 175 177 176 174 176 176 167 166 169 170 178 180 173 170 162 162 163 169 187 191 191 190 199 210 213 215 231 231 236 241 240 265 257 269
185 181 181 184 189 191 184 179 178 178 181 184 183 184 188 191 195 191 189 189 186 182 179 178 177 178 178 177 180 177 176 174 175 176 170 171 170 177 180 172 162 161 158 163 168 172 190 184 191 191 199 202 209 195 193 243 214 258 244 245 281 54
184 181 182 184 191 190 182 180 179 181 188 187 188 190 192 196 195 191 190 188 183 182 180 180 179 180 180 179 179 176 175 177 179 172 168 171 170 174 168 166 163 157 156 160 164 177 184 186 188 193 198 200 204 196 185 213 235 223 253 220 311 309
169 180 188 192 195 182 181 181 184 189 192 192 190 194 200 199 195 190 186 183 182 182 181 182 181 181 180 179 177 177 178 172 168 171 168 170 169 169 168 168 164 159 158 155 158 160 165 182 202 198 199 201 205 199 184 195 200 217 222 272 225 263
182 189 193 196 186 181 183 182 188 197 198 194 196 206 206 196 187 186 185 182 182 183 183 183 184 182 182 179 177 174 173 174 175 167 165 169 165 163 165 166 162 154 157 158 162 161 183 190 203 199 200 203 205 206 187 199 199 204 195 216 237 255
187 192 195 189 182 180 181 184 193 200 197 200 210 212 193 185 188 185 184 185 185 185 184 185 185 181 178 175 171 173 178 178 171 168 165 165 164 166 165 164 158 157 158 155 168 175 188 190 190 189 203 206 208 204 199 181 204 197 201 224 236 244
188 193 192 186 182 181 184 185 196 198 200 208 215 197 183 189 184 186 186 186 187 188 187 185 180 179 177 177 178 175 176 172 168 166 165 164 165 165 163 164 162 158 164 164 173 177 184 190 179 193 206 216 210 207 205 197 196 216 212 215 229 239
191 194 191 185 183 183 186 188 198 201 204 216 206 178 186 183 187 183 187 191 192 189 187 185 182 180 181 178 175 175 173 172 169 167 169 168 166 166 163 168 163 161 172 180 183 186 188 192 172 202 201 213 215 208 204 209 211 211 206 219 214 237
192 191 191 190 188 189 190 193 198 202 211 215 174 189 185 184 181 185 191 193 192 190 188 183 182 184 182 179 175 175 175 171 166 168 173 166 169 170 170 173 170 175 180 181 189 187 185 184 184 183 203 203 213 208 207 209 211 218 222 217 80 140
187 184 195 199 193 194 194 198 198 205 216 196 184 189 185 181 183 188 193 191 190 190 182 181 186 186 184 180 182 182 178 173 173 172 171 171 175 175 173 172 175 181 182 187 186 187 178 173 176 181 191 198 204 209 210 207 210 216 224 215 214 239
193 197 196 201 200 196 197 200 205 213 208 189 191 187 183 183 185 190 190 192 189 185 182 185 186 186 185 184 184 182 178 176 176 172 172 176 175 176 176 174 177 181 185 185 184 179 171 173 176 180 185 184 186 194 201 205 212 213 212 186 92 93
201 204 202 206 200 196 198 201 207 208 202 195 188 183 179 185 188 190 192 190 188 187 187 190 187 184 187 187 183 182 181 183 180 178 181 179 179 175 179 178 182 186 185 183 175 169 166 177 177 185 186 184 175 183 183 191 182 191 140 158 134 124
207 208 205 210 200 196 198 205 208 205 200 195 186 180 184 192 193 192 191 190 189 193 190 191 186 189 186 187 190 194 189 182 183 187 190 194 183 178 176 180 186 187 183 174 170 166 175 178 194 197 182 178 176 181 183 189 176 168 189 183 148 126
206 209 212 217 199 197 203 208 209 204 200 193 187 182 190 192 189 191 195 193 194 195 190 190 187 188 188 188 190 188 192 198 198 200 185 186 185 189 186 175 179 180 169 172 183 175 174 186 190 181 186 188 188 190 191 193 196 199 201 187 143 128
207 210 216 215 198 204 207 208 208 204 198 191 187 186 191 185 188 195 199 196 200 195 190 187 188 190 191 190 189 186 181 174 185 197 196 182 170 175 182 185 178 169 170 165 160 178 178 167 173 181 184 186 190 196 199 201 201 201 202 143 122 108
210 212 218 212 204 207 206 210 212 208 200 191 190 188 189 188 190 197 201 200 199 191 190 190 190 188 191 190 185 183 178 175 174 178 183 168 166 178 183 179 174 172 173 171 161 153 168 173 177 180 184 186 190 193 195 197 197 205 199 178 120 106
213 217 219 214 205 205 207 211 218 210 197 191 189 186 190 193 197 201 200 197 194 192 192 191 192 192 190 187 183 183 179 180 179 176 164 152 164 179 182 177 175 174 173 172 170 167 166 171 178 180 183 185 187 190 192 192 198 194 165 155 127 133
214 216 218 217 209 206 208 216 223 210 195 186 188 189 194 196 200 201 196 194 193 190 193 195 196 192 191 189 187 186 184 187 184 181 167 156 153 173 184 182 180 176 174 174 173 174 174 179 182 184 181 183 186 186 187 189 180 161 173 151 162 158
220 224 222 217 210 208 210 220 224 211 186 180 184 189 197 199 199 201 203 197 191 194 196 197 196 192 188 185 187 188 187 186 185 178 171 173 172 174 176 177 182 184 180 177 176 178 178 183 185 184 182 184 184 184 186 164 157 167 153 97 110 163
221 229 229 220 211 212 217 226 226 200 174 175 181 189 195 197 197 199 199 198 196 197 199 196 195 190 188 188 189 188 187 183 180 177 179 181 180 176 169 167 172 170 183 180 179 183 182 179 179 181 183 181 184 186 178 144 177 169 183 173 174 170